x

Half Moon Bay - 24nm Ssw Of San Francisco, Ca (46012) Wave Buoy

8:50pm - Tue 7th Jul 2015 All times are PDT. -7 hours from GMT.

  • Sig Wave height 3.6ft
  • Swell Direction
  • Peak Period 19s
  • Average Period 9s
  • Wind
    11mph, 13mph gusts
  • Sea Temp 61°f
  • Air Temp 61°f
  • Sea Pressure 1013mb
  • Half Moon Bay - 24nm Ssw Of San Francisco, Ca
  • Half Moon Bay - 24nm Ssw Of San Francisco, Ca

More Historic Weather Station data

Upgrade to MSW Pro to gain access to the past 30 days of data for over 8000 Wavebouys and Weather Stations around the globe.

Join Pro

Comparision Forecast

View Surf forecast
   
Tue 07/07 8:50pm 3.5ft 19s 9s 11 13 mph 1013mb 61f 61f
7:50pm 3.5ft 14s 9s 9 11 mph 1012.8mb 62f 62f
6:50pm 3.5ft 19s 10s 9 11 mph 1012.8mb 63f 62f
5:50pm 3.5ft 12s 10s 9
mph
1013.1mb 64f 62f
4:50pm 3.5ft 14s 10s 4 7 mph 1013.5mb 64f 62f
3:50pm 3ft 14s 9s 9 11 mph 1014mb 64f 61f
2:50pm 3.5ft 14s 10s 4 7 mph 1014.5mb 64f 63f
1:50pm 3.5ft 13s 9s 4 7 mph 1015.3mb 64f 63f
12:50pm 3ft 19s 9s 4 7 mph 1015.9mb 64f 63f
11:50am 3.5ft 14s 9s 4 7 mph 1016.1mb 63f 63f
10:50am 3.5ft 14s 10s 2 4 mph 1016.1mb 62f 63f
9:50am 3.5ft 14s 9s 2
mph
1016.1mb 62f 62f
8:50am 3.5ft 14s 9s 4
mph
1016.2mb 62f 62f
7:50am 3.5ft 13s 10s 2
mph
1016.2mb 61f 62f
6:50am 3.5ft 14s 10s 2
mph
1015.9mb 62f 62f
5:50am 3.5ft 14s 10s 2 4 mph 1015.6mb 62f 62f
4:50am 3ft 14s 9s  -  2 mph 1015.5mb 62f 62f
3:50am 3.5ft 14s 9s  -  2 mph 1015.4mb 62f 62f
2:50am 3ft 9s 9s 4 7 mph 1015.5mb 62f 62f
1:50am 3.5ft 11s 9s 4
mph
1015.9mb 62f 62f
12:50am 3.5ft 10s 9s 4
mph
1016.1mb 62f 62f
Mon 07/06 11:50pm 3.5ft 14s 9s 4
mph
1016.2mb 62f 62f
10:50pm 3.5ft 15s 9s 4
mph
1016.5mb 62f 62f
9:50pm 4.5ft 14s 9s 2 4 mph 1016.3mb 62f 62f
8:50pm 4ft 10s 9s  -  2 mph 1016mb 63f 62f
7:50pm 3.5ft 15s 9s 2
mph
1016mb 62f 63f
6:50pm 3.5ft 15s 9s 7
mph
1015.6mb 62f 63f
5:50pm 3.5ft 15s 9s 9
mph
1015.8mb 62f 63f
4:50pm 4ft 11s 9s 9
mph
1016.2mb 63f 63f
3:50pm 3.5ft 15s 9s 7
mph
1016.8mb 65f 62f
2:50pm 3.5ft 9s 9s 4 7 mph 1017.7mb 64f 62f
1:50pm 3.5ft 15s 9s 2 7 mph 1018.1mb 63f 62f
12:50pm 3.5ft 15s 9s  -  4 mph 1018.3mb 62f 62f
11:50am 3.5ft 15s 9s 2
mph
1018.3mb 62f 62f
10:50am 4ft 15s 9s 4
mph
1018.3mb 61f 61f
9:50am 3.5ft 16s 8s 2 4 mph 1018.4mb 61f 61f
8:50am 4ft 15s 8s 7 9 mph 1018.2mb 60f 61f
7:50am 4ft 16s 9s 4
mph
1017.7mb 61f 61f
6:50am 4ft 15s 9s 2
mph
1017.2mb 61f 61f
5:50am 3.5ft 14s 9s 7
mph
1016.7mb 61f 61f
4:50am 3.5ft 13s 9s 4 7 mph 1016.2mb 61f 61f
3:50am 3.5ft 15s 9s 2 4 mph 1016mb 60f 60f
2:50am 3.5ft 10s 8s 4 7 mph 1015.9mb 60f 59f
1:50am 3.5ft 15s 8s 4
mph
1015.6mb 60f 60f
12:50am 3.5ft 9s 8s 4
mph
1015.4mb 60f 60f
Sun 07/05 11:50pm 3.5ft 15s 8s 7 9 mph 1015.3mb 60f 60f
10:50pm 3.5ft 15s 8s 7 11 mph 1015.2mb 60f 61f
9:50pm 3.5ft 14s 8s 7 9 mph 1014.9mb 61f 61f
8:50pm 4ft 14s 9s 4 7 mph 1014.3mb 61f 61f
7:50pm 3.5ft 15s 8s 4
mph
1014mb 61f 61f
6:50pm 3.5ft 16s 8s 2 4 mph 1013.7mb 61f 61f
5:50pm 3.5ft 15s 9s 4 7 mph 1013.7mb 61f 62f
4:50pm 3.5ft 14s 8s 4
mph
1013.8mb 61f 62f
3:50pm 3.5ft 15s 8s 4
mph
1014.2mb 61f 61f
2:50pm 3.5ft 14s 8s 7 9 mph 1014.5mb 61f 60f
1:50pm 3.5ft 14s 8s 7 9 mph 1014.8mb 61f 61f
12:50pm 3.5ft 15s 8s 7 9 mph 1014.9mb 60f 60f
11:50am 3.5ft 16s 8s 7
mph
1014.9mb 60f 60f
10:50am 3.5ft 14s 8s 4 7 mph 1014.7mb 60f 60f
9:50am 3.5ft 14s 7s 7 11 mph 1014.3mb 60f 60f
8:50am 3.5ft 15s 7s 7 9 mph 1014mb 59f 60f
7:50am 4ft 15s 8s 9 11 mph 1013.6mb 59f 60f
6:50am 4ft 15s 8s 9 13 mph 1013mb 59f 60f
5:50am 3.5ft 14s 8s 7 9 mph 1012.2mb 59f 60f
4:50am 3.5ft 15s 8s 7 9 mph 1011.8mb 60f 60f
3:50am 3.5ft 15s 8s 7 9 mph 1011.4mb 60f 60f
2:50am 3.5ft 15s 8s 9 11 mph 1011.5mb 60f 60f
1:50am 3.5ft 14s 8s 7 11 mph 1011.3mb 60f 60f
12:50am 3.5ft 14s 8s 9 11 mph 1011.3mb 59f 60f
Sat 07/04 11:50pm 3.5ft 16s 8s 7 9 mph 1011.4mb 60f 60f
10:50pm 3.5ft 8s 7s 4 7 mph 1011.7mb 60f 60f
9:50pm 4ft 15s 8s 7 9 mph 1011.3mb 60f 60f
8:50pm 4ft 14s 7s 2 4 mph 1011mb 60f 60f
7:50pm 3.5ft 15s 8s 4 9 mph 1010.6mb 60f 60f
6:50pm 4ft 9s 8s 7 9 mph 1010.6mb 60f 60f
5:50pm 4ft 15s 8s 7
mph
1010.8mb 60f 60f
4:50pm 4ft 15s 8s 7 9 mph 1010.9mb 60f 60f
3:50pm 4ft 9s 8s 4 7 mph 1011.1mb 60f 60f
2:50pm 4ft 9s 8s 4 7 mph 1011.1mb 60f 60f
1:50pm 4ft 9s 8s 4 7 mph 1011.4mb 60f 60f
12:50pm 3.5ft 9s 8s 4 7 mph 1011.5mb 60f 59f
11:50am 4.5ft 9s 8s 4 7 mph 1011.4mb 60f 59f
10:50am 4.5ft 9s 8s 7
mph
1011.2mb 60f 59f
9:50am 4.5ft 9s 8s 2 4 mph 1011.4mb 60f 59f
8:50am 4ft 9s 8s 2
mph
1011.4mb 60f 58f
7:50am 4.5ft 9s 8s 2 4 mph 1011.2mb 60f 59f
6:50am 4.5ft 8s 8s 4
mph
1011mb 60f 58f
5:50am 4.5ft 10s 8s  -  mph 1011mb 60f 58f